| time (UTC) | temp C | wind direction | speed KPH | gust KPH | rain 1hr cm | rain 24hr cm | rain mn cm | humidity % | barometer mb |
| 20260504150525 | 18 | 213 | 4.8 | 12.9 | 0.00 | 0.00 | 0.00 | 44 | 1013.1 |
| 20260504141000 | 16 | 234 | 3.2 | 9.7 | 0.00 | 0.00 | 0.00 | 44 | 1013.4 |
| 20260504140500 | 16 | 214 | 3.2 | 9.7 | 0.00 | 0.00 | 0.00 | 47 | 1013.4 |
| 20260504130500 | 13 | 205 | 3.2 | 9.7 | 0.00 | 0.00 | 0.00 | 51 | 1013.8 |
| 20260504110501 | 4 | 175 | 0.0 | 1.6 | 0.00 | 0.00 | 0.00 | 86 | 1014.3 |
| 20260504100502 | 2 | 120 | 0.0 | 1.6 | 0.00 | 0.00 | 0.00 | 82 | 1014.1 |
| 20260504082002 | 4 | 92 | 0.0 | 1.6 | 0.00 | 0.00 | 0.00 | 78 | 1014.2 |
| 20260504081502 | 4 | 171 | 0.0 | 1.6 | 0.00 | 0.00 | 0.00 | 78 | 1014.2 |
| 20260504081002 | 4 | 146 | 0.0 | 1.6 | 0.00 | 0.00 | 0.00 | 78 | 1014.1 |
| 20260504080502 | 5 | 117 | 0.0 | 1.6 | 0.00 | 0.00 | 0.00 | 78 | 1014.2 |
| 20260504050500 | 6 | 48 | 0.0 | 1.6 | 0.00 | 0.00 | 0.00 | 72 | 1014.1 |
| 20260504050000 | 6 | 38 | 0.0 | 1.6 | 0.00 | 0.00 | 0.00 | 72 | 1014.1 |
| 20260504045500 | 6 | 43 | 0.0 | 1.6 | 0.00 | 0.00 | 0.00 | 72 | 1014.0 |
| 20260504045000 | 6 | 53 | 0.0 | 1.6 | 0.00 | 0.00 | 0.00 | 72 | 1014.0 |
| 20260504044500 | 6 | 52 | 0.0 | 1.6 | 0.00 | 0.00 | 0.00 | 72 | 1014.0 |
| 20260504044000 | 6 | 54 | 0.0 | 1.6 | 0.00 | 0.00 | 0.00 | 71 | 1014.0 |
| 20260504043521 | 6 | 79 | 0.0 | 1.6 | 0.00 | 0.00 | 0.00 | 71 | 1013.9 |
| 20260504043000 | 6 | 89 | 0.0 | 1.6 | 0.00 | 0.00 | 0.00 | 71 | 1013.9 |
| 20260504042500 | 6 | 63 | 0.0 | 1.6 | 0.00 | 0.00 | 0.00 | 72 | 1013.9 |
| 20260504042000 | 6 | 70 | 0.0 | 3.2 | 0.00 | 0.00 | 0.00 | 71 | 1013.9 |
| 20260504041522 | 6 | 69 | 1.6 | 3.2 | 0.00 | 0.00 | 0.00 | 71 | 1013.9 |
| 20260504041000 | 7 | 58 | 0.0 | 3.2 | 0.00 | 0.00 | 0.00 | 70 | 1013.8 |
| 20260504040500 | 7 | 59 | 0.0 | 1.6 | 0.00 | 0.00 | 0.00 | 70 | 1013.8 |
| 20260504040001 | 7 | 70 | 0.0 | 1.6 | 0.00 | 0.00 | 0.00 | 69 | 1013.7 |
| 20260504035500 | 7 | 56 | 1.6 | 3.2 | 0.00 | 0.00 | 0.00 | 69 | 1013.6 |
| 20260504035000 | 7 | 59 | 1.6 | 3.2 | 0.00 | 0.00 | 0.00 | 69 | 1013.5 |
| 20260504034500 | 7 | 94 | 0.0 | 3.2 | 0.00 | 0.00 | 0.00 | 68 | 1013.5 |
| 20260504034000 | 7 | 60 | 0.0 | 3.2 | 0.00 | 0.00 | 0.00 | 67 | 1013.5 |
| 20260504033500 | 7 | 50 | 1.6 | 3.2 | 0.00 | 0.00 | 0.00 | 66 | 1013.4 |
| 20260504033000 | 8 | 54 | 0.0 | 3.2 | 0.00 | 0.00 | 0.00 | 63 | 1013.5 |
| 20260504032522 | 8 | 113 | 0.0 | 1.6 | 0.00 | 0.00 | 0.00 | 62 | 1013.4 |
| 20260504032001 | 8 | 138 | 0.0 | 3.2 | 0.00 | 0.00 | 0.00 | 63 | 1013.4 |
| 20260504031522 | 8 | 141 | 0.0 | 3.2 | 0.00 | 0.00 | 0.00 | 63 | 1013.4 |
| 20260504031001 | 8 | 149 | 0.0 | 1.6 | 0.00 | 0.00 | 0.00 | 63 | 1013.4 |
| 20260504030501 | 8 | 151 | 0.0 | 1.6 | 0.00 | 0.00 | 0.00 | 63 | 1013.3 |
| 20260504030001 | 8 | 127 | 0.0 | 1.6 | 0.00 | 0.00 | 0.00 | 61 | 1013.3 |
| 20260504025501 | 8 | 61 | 0.0 | 1.6 | 0.00 | 0.00 | 0.00 | 60 | 1013.4 |
| 20260504025022 | 8 | 60 | 0.0 | 1.6 | 0.00 | 0.00 | 0.00 | 60 | 1013.4 |
| 20260504024501 | 8 | 68 | 0.0 | 1.6 | 0.00 | 0.00 | 0.00 | 60 | 1013.3 |
| 20260504024022 | 8 | 98 | 0.0 | 1.6 | 0.00 | 0.00 | 0.00 | 59 | 1013.4 |
| 20260504023501 | 9 | 120 | 0.0 | 1.6 | 0.00 | 0.00 | 0.00 | 59 | 1013.4 |
| 20260504023001 | 9 | 340 | 1.6 | 3.2 | 0.00 | 0.00 | 0.00 | 59 | 1013.3 |
| 20260504022501 | 9 | 346 | 1.6 | 3.2 | 0.00 | 0.00 | 0.00 | 59 | 1013.4 |
| 20260504022001 | 9 | 1 | 1.6 | 3.2 | 0.00 | 0.00 | 0.00 | 58 | 1013.3 |
| 20260504021522 | 10 | 25 | 1.6 | 3.2 | 0.00 | 0.00 | 0.00 | 58 | 1013.3 |
| 20260504021001 | 10 | 50 | 1.6 | 3.2 | 0.00 | 0.00 | 0.00 | 59 | 1013.4 |
| 20260504020501 | 10 | 33 | 1.6 | 3.2 | 0.00 | 0.00 | 0.00 | 59 | 1013.3 |
| 20260504020001 | 10 | 13 | 1.6 | 3.2 | 0.00 | 0.00 | 0.00 | 58 | 1013.2 |
| 20260504015501 | 10 | 14 | 1.6 | 3.2 | 0.00 | 0.00 | 0.00 | 57 | 1013.3 |
| 20260504015001 | 10 | 1 | 1.6 | 3.2 | 0.00 | 0.00 | 0.00 | 56 | 1013.3 |
| 20260504014501 | 11 | 336 | 1.6 | 3.2 | 0.00 | 0.00 | 0.00 | 54 | 1013.3 |
| 20260504014023 | 11 | 343 | 1.6 | 3.2 | 0.00 | 0.00 | 0.00 | 53 | 1013.2 |
| 20260504013501 | 11 | 99 | 0.0 | 3.2 | 0.00 | 0.00 | 0.00 | 52 | 1013.3 |
| 20260504013001 | 11 | 204 | 0.0 | 1.6 | 0.00 | 0.00 | 0.00 | 51 | 1013.1 |
| 20260504012501 | 11 | 260 | 0.0 | 3.2 | 0.00 | 0.00 | 0.00 | 51 | 1013.1 |
| 20260504012001 | 11 | 329 | 0.0 | 3.2 | 0.00 | 0.00 | 0.00 | 51 | 1013.1 |
| 20260504011501 | 11 | 350 | 0.0 | 3.2 | 0.00 | 0.00 | 0.00 | 51 | 1013.0 |
| 20260504011001 | 11 | 342 | 0.0 | 3.2 | 0.00 | 0.00 | 0.00 | 49 | 1013.0 |
| 20260504010501 | 12 | 1 | 0.0 | 4.8 | 0.00 | 0.00 | 0.00 | 48 | 1012.9 |
| 20260504010002 | 12 | 22 | 0.0 | 4.8 | 0.00 | 0.00 | 0.00 | 48 | 1012.8 |
| 20260504005501 | 12 | 181 | 0.0 | 1.6 | 0.00 | 0.00 | 0.00 | 46 | 1012.8 |
| 20260504005002 | 12 | 229 | 0.0 | 1.6 | 0.00 | 0.00 | 0.00 | 46 | 1012.7 |
| 20260504004502 | 12 | 271 | 0.0 | 1.6 | 0.00 | 0.00 | 0.00 | 45 | 1012.7 |
| 20260504004002 | 12 | 267 | 0.0 | 3.2 | 0.00 | 0.00 | 0.00 | 44 | 1012.6 |
| 20260504003502 | 13 | 285 | 1.6 | 3.2 | 0.00 | 0.00 | 0.00 | 44 | 1012.6 |
| 20260504003002 | 13 | 306 | 1.6 | 3.2 | 0.00 | 0.00 | 0.00 | 44 | 1012.5 |
| 20260504002501 | 13 | 307 | 0.0 | 3.2 | 0.00 | 0.00 | 0.00 | 43 | 1012.4 |
| 20260504002023 | 13 | 309 | 0.0 | 1.6 | 0.00 | 0.00 | 0.00 | 43 | 1012.3 |
| 20260504001502 | 13 | 291 | 0.0 | 4.8 | 0.00 | 0.00 | 0.00 | 42 | 1012.3 |
| 20260504001002 | 14 | 255 | 1.6 | 4.8 | 0.00 | 0.00 | 0.00 | 41 | 1012.3 |
| 20260504000502 | 14 | 272 | 1.6 | 3.2 | 0.00 | 0.00 | 0.00 | 41 | 1012.2 |
| 20260504000023 | 14 | 286 | 1.6 | 4.8 | 0.00 | 0.00 | 0.00 | 40 | 1012.2 |
| 20260503235502 | 15 | 289 | 3.2 | 9.7 | 0.00 | 0.00 | 0.00 | 39 | 1012.1 |
| 20260503235023 | 15 | 298 | 3.2 | 9.7 | 0.00 | 0.00 | 0.00 | 38 | 1012.1 |
| 20260503234502 | 15 | 303 | 3.2 | 9.7 | 0.00 | 0.00 | 0.00 | 39 | 1012.1 |
| 20260503234023 | 15 | 294 | 3.2 | 9.7 | 0.00 | 0.00 | 0.00 | 38 | 1011.9 |
| 20260503233502 | 15 | 303 | 3.2 | 8.0 | 0.00 | 0.00 | 0.00 | 38 | 1011.9 |
| 20260503233023 | 15 | 302 | 3.2 | 9.7 | 0.00 | 0.00 | 0.00 | 37 | 1011.8 |
| 20260503232502 | 15 | 293 | 4.8 | 16.1 | 0.00 | 0.00 | 0.00 | 37 | 1011.8 |
| 20260503232002 | 15 | 293 | 4.8 | 16.1 | 0.00 | 0.00 | 0.00 | 37 | 1011.8 |
| 20260503231502 | 16 | 293 | 4.8 | 12.9 | 0.00 | 0.00 | 0.00 | 36 | 1011.8 |
| 20260503231002 | 16 | 292 | 4.8 | 9.7 | 0.00 | 0.00 | 0.00 | 36 | 1011.8 |
| 20260503230502 | 16 | 294 | 3.2 | 11.3 | 0.00 | 0.00 | 0.00 | 37 | 1011.8 |
| 20260503230002 | 16 | 297 | 4.8 | 14.5 | 0.00 | 0.00 | 0.00 | 36 | 1011.7 |
| 20260503225503 | 16 | 293 | 4.8 | 17.7 | 0.00 | 0.00 | 0.00 | 35 | 1011.6 |
| 20260503225003 | 16 | 291 | 4.8 | 17.7 | 0.00 | 0.00 | 0.00 | 35 | 1011.6 |
| 20260503224502 | 16 | 301 | 3.2 | 9.7 | 0.00 | 0.00 | 0.00 | 37 | 1011.6 |
| 20260503224002 | 16 | 302 | 6.4 | 19.3 | 0.00 | 0.00 | 0.00 | 35 | 1011.6 |
| 20260503223524 | 16 | 300 | 4.8 | 19.3 | 0.00 | 0.00 | 0.00 | 35 | 1011.6 |
| 20260503223002 | 16 | 291 | 4.8 | 16.1 | 0.00 | 0.00 | 0.00 | 36 | 1011.6 |
| 20260503222502 | 16 | 296 | 4.8 | 17.7 | 0.00 | 0.00 | 0.00 | 34 | 1011.7 |
| 20260503222003 | 16 | 311 | 4.8 | 17.7 | 0.00 | 0.00 | 0.00 | 35 | 1011.6 |
| 20260503221503 | 16 | 308 | 6.4 | 19.3 | 0.00 | 0.00 | 0.00 | 35 | 1011.6 |
| 20260503221003 | 16 | 311 | 6.4 | 19.3 | 0.00 | 0.00 | 0.00 | 35 | 1011.6 |
| 20260503220502 | 16 | 309 | 4.8 | 14.5 | 0.00 | 0.00 | 0.00 | 34 | 1011.5 |
| 20260503220003 | 17 | 296 | 4.8 | 14.5 | 0.00 | 0.00 | 0.00 | 35 | 1011.6 |
| 20260503215503 | 17 | 295 | 4.8 | 16.1 | 0.00 | 0.00 | 0.00 | 35 | 1011.5 |
| 20260503215003 | 16 | 303 | 6.4 | 17.7 | 0.00 | 0.00 | 0.00 | 36 | 1011.6 |
| 20260503214503 | 16 | 316 | 6.4 | 17.7 | 0.00 | 0.00 | 0.00 | 34 | 1011.5 |
| 20260503214003 | 16 | 314 | 4.8 | 12.9 | 0.00 | 0.00 | 0.00 | 35 | 1011.4 |
| 20260503213503 | 16 | 298 | 3.2 | 12.9 | 0.00 | 0.00 | 0.00 | 35 | 1011.5 |
| 20260503213024 | 16 | 301 | 3.2 | 12.9 | 0.00 | 0.00 | 0.00 | 34 | 1011.5 |
| 20260503212503 | 16 | 304 | 4.8 | 12.9 | 0.00 | 0.00 | 0.00 | 33 | 1011.4 |
| 20260503212003 | 16 | 309 | 4.8 | 12.9 | 0.00 | 0.00 | 0.00 | 33 | 1011.4 |
| 20260503211503 | 16 | 310 | 4.8 | 12.9 | 0.00 | 0.00 | 0.00 | 34 | 1011.4 |
| 20260503211003 | 16 | 293 | 4.8 | 12.9 | 0.00 | 0.00 | 0.00 | 35 | 1011.4 |
| 20260503210503 | 16 | 297 | 4.8 | 14.5 | 0.00 | 0.00 | 0.00 | 34 | 1011.5 |
| 20260503210003 | 16 | 296 | 6.4 | 14.5 | 0.00 | 0.00 | 0.00 | 32 | 1011.6 |
| 20260503205503 | 16 | 306 | 6.4 | 14.5 | 0.00 | 0.00 | 0.00 | 33 | 1011.6 |
| 20260503204959 | 16 | 306 | 6.4 | 17.7 | 0.00 | 0.00 | 0.00 | 33 | 1011.6 |
| 20260503204459 | 16 | 304 | 6.4 | 19.3 | 0.00 | 0.00 | 0.00 | 35 | 1011.6 |
| 20260503204000 | 16 | 308 | 6.4 | 19.3 | 0.00 | 0.00 | 0.00 | 32 | 1011.6 |
| 20260503203500 | 16 | 296 | 4.8 | 16.1 | 0.00 | 0.00 | 0.00 | 35 | 1011.7 |
| 20260503202959 | 17 | 295 | 4.8 | 12.9 | 0.00 | 0.00 | 0.00 | 32 | 1011.7 |
| 20260503202500 | 17 | 304 | 6.4 | 16.1 | 0.00 | 0.00 | 0.00 | 32 | 1011.8 |
| 20260503202000 | 17 | 306 | 6.4 | 16.1 | 0.00 | 0.00 | 0.00 | 33 | 1011.9 |
| 20260503201500 | 17 | 311 | 6.4 | 16.1 | 0.00 | 0.00 | 0.00 | 35 | 1011.8 |
| 20260503201000 | 16 | 307 | 6.4 | 16.1 | 0.00 | 0.00 | 0.00 | 34 | 1012.0 |
| 20260503200500 | 17 | 300 | 6.4 | 19.3 | 0.00 | 0.00 | 0.00 | 35 | 1012.0 |
| 20260503200000 | 16 | 303 | 6.4 | 19.3 | 0.00 | 0.00 | 0.00 | 35 | 1012.0 |
| 20260503195521 | 16 | 301 | 6.4 | 16.1 | 0.00 | 0.00 | 0.00 | 34 | 1012.1 |
| 20260503195000 | 16 | 300 | 6.4 | 17.7 | 0.00 | 0.00 | 0.00 | 35 | 1012.2 |
| 20260503194500 | 16 | 302 | 8.0 | 20.9 | 0.00 | 0.00 | 0.00 | 35 | 1012.4 |
| 20260503194000 | 16 | 301 | 6.4 | 20.9 | 0.00 | 0.00 | 0.00 | 36 | 1012.4 |
| 20260503193500 | 16 | 299 | 6.4 | 14.5 | 0.00 | 0.00 | 0.00 | 36 | 1012.4 |
| 20260503193000 | 16 | 301 | 4.8 | 14.5 | 0.00 | 0.00 | 0.00 | 36 | 1012.4 |
| 20260503192521 | 16 | 292 | 4.8 | 14.5 | 0.00 | 0.00 | 0.00 | 35 | 1012.6 |
| 20260503192000 | 16 | 292 | 4.8 | 16.1 | 0.00 | 0.00 | 0.00 | 35 | 1012.6 |
| 20260503191500 | 16 | 312 | 4.8 | 22.5 | 0.00 | 0.00 | 0.00 | 35 | 1012.7 |
| 20260503191000 | 16 | 308 | 6.4 | 22.5 | 0.00 | 0.00 | 0.00 | 38 | 1012.6 |
| 20260503190500 | 16 | 300 | 6.4 | 19.3 | 0.00 | 0.00 | 0.00 | 34 | 1012.6 |
| 20260503190000 | 16 | 304 | 4.8 | 11.3 | 0.00 | 0.00 | 0.00 | 39 | 1012.7 |
| 20260503185522 | 15 | 316 | 4.8 | 11.3 | 0.00 | 0.00 | 0.00 | 35 | 1012.7 |
| 20260503185000 | 16 | 301 | 6.4 | 20.9 | 0.00 | 0.00 | 0.00 | 37 | 1012.7 |
| 20260503184500 | 16 | 294 | 6.4 | 20.9 | 0.00 | 0.00 | 0.00 | 36 | 1012.7 |
| 20260503184000 | 16 | 305 | 6.4 | 16.1 | 0.00 | 0.00 | 0.00 | 37 | 1012.7 |
| 20260503183500 | 16 | 310 | 6.4 | 17.7 | 0.00 | 0.00 | 0.00 | 37 | 1012.8 |
| 20260503183000 | 16 | 310 | 6.4 | 17.7 | 0.00 | 0.00 | 0.00 | 36 | 1012.9 |
| 20260503182522 | 16 | 309 | 6.4 | 19.3 | 0.00 | 0.00 | 0.00 | 39 | 1013.0 |
| 20260503182000 | 16 | 309 | 6.4 | 19.3 | 0.00 | 0.00 | 0.00 | 34 | 1013.0 |
| 20260503181500 | 16 | 301 | 6.4 | 14.5 | 0.00 | 0.00 | 0.00 | 38 | 1012.9 |
| 20260503181001 | 16 | 291 | 6.4 | 14.5 | 0.00 | 0.00 | 0.00 | 37 | 1013.0 |
| 20260503180522 | 16 | 289 | 4.8 | 12.9 | 0.00 | 0.00 | 0.00 | 38 | 1012.9 |
| 20260503180022 | 16 | 293 | 4.8 | 12.9 | 0.00 | 0.00 | 0.00 | 36 | 1013.0 |
| 20260503175501 | 16 | 320 | 4.8 | 14.5 | 0.00 | 0.00 | 0.00 | 42 | 1013.0 |
| 20260503175001 | 15 | 312 | 6.4 | 14.5 | 0.00 | 0.00 | 0.00 | 36 | 1012.9 |
| 20260503174501 | 15 | 292 | 6.4 | 14.5 | 0.00 | 0.00 | 0.00 | 38 | 1013.0 |
| 20260503174001 | 15 | 302 | 6.4 | 14.5 | 0.00 | 0.00 | 0.00 | 40 | 1013.1 |
| 20260503173501 | 15 | 301 | 8.0 | 20.9 | 0.00 | 0.00 | 0.00 | 39 | 1013.1 |
| 20260503173001 | 15 | 298 | 8.0 | 20.9 | 0.00 | 0.00 | 0.00 | 36 | 1013.1 |
| 20260503172501 | 15 | 309 | 6.4 | 19.3 | 0.00 | 0.00 | 0.00 | 39 | 1013.2 |
| 20260503172001 | 15 | 308 | 6.4 | 19.3 | 0.00 | 0.00 | 0.00 | 37 | 1013.1 |
| 20260503171501 | 15 | 290 | 6.4 | 20.9 | 0.00 | 0.00 | 0.00 | 39 | 1013.2 |
| 20260503171001 | 15 | 297 | 6.4 | 20.9 | 0.00 | 0.00 | 0.00 | 38 | 1013.2 |
| 20260503170501 | 14 | 319 | 4.8 | 14.5 | 0.00 | 0.00 | 0.00 | 38 | 1013.3 |
| 20260503151002 | 10 | 304 | 4.8 | 17.7 | 0.00 | 0.00 | 0.00 | 50 | 1014.3 |